This demonstration page uses our WeatherBlox Daily Observations layout. Learn more.

Left ArrowRight Arrow

44.89941, -97.11507

Hourly Observations for June 26, 2018

Temp ( °F °C ) Dew Point ( °F °C ) Humidity (%) Winds ( mph kmh ) Pressure ( in mb ) Visibility ( mi km ) Precip ( " mm )
12:53 am 00:53 Mostly Cloudy 67 19.4 62 16.7 84 84 E 6 9 29.88 1012 10 16 0.00 0.00
1:53 am 01:53 Partly Cloudy 67 19.4 62 16.7 84 84 E 10 17 29.85 1011 10 16 0.00 0.00
2:53 am 02:53 Cloudy 66 18.9 62 16.7 87 87 ENE 8 13 29.83 1010 10 16 0.00 0.00
3:15 am 03:15 Cloudy 66 18.9 62 16.7 87 87 ENE 8 13 29.83 1010 10 16 0.00 0.00
3:53 am 03:53 Cloudy 66 18.9 63 17.2 90 90 E 12 19 29.82 1010 10 16 0.00 0.00
4:15 am 04:15 Cloudy 65 18.3 63 17.2 93 93 E 6 9 29.83 1010 10 16 0.00 0.00
4:53 am 04:53 Cloudy 65 18.3 63 17.2 93 93 ENE 7 11 29.83 1010 10 16 0.00 0.00
5:53 am 05:53 Cloudy with Mist and Fog 64 17.8 64 17.8 100 100 E 9 15 29.83 1010 4 6 0.00 0.00
6:21 am 06:21 Cloudy with Mist and Fog 64 17.8 64 17.8 100 100 ENE 7 11 29.83 1010 5 8 0.00 0.00
6:53 am 06:53 Cloudy with Mist and Fog 64 17.8 64 17.8 100 100 ENE 6 9 29.84 1011 3 5 0.00 0.00
7:13 am 07:13 Cloudy with Mist and Fog 64 17.8 64 17.8 100 100 ENE 8 13 29.83 1010 3 4 0.00 0.00
7:24 am 07:24 Cloudy with Mist and Fog 64 17.8 64 17.8 100 100 NE 8 13 29.83 1010 3 5 0.00 0.00
7:35 am 07:35 Cloudy with Mist and Fog 64 17.8 64 17.8 100 100 ENE 7 11 29.83 1010 3 4 0.00 0.00
7:42 am 07:42 Cloudy with Mist and Fog 64 17.8 64 17.8 100 100 ENE 7 11 29.83 1010 3 5 0.00 0.00
7:53 am 07:53 Cloudy with Mist and Fog 64 17.8 64 17.8 100 100 ENE 8 13 29.84 1010 3 5 0.00 0.00
8:26 am 08:26 Cloudy with Mist and Fog 64 17.8 64 17.8 100 100 NE 8 13 29.83 1010 2 3 0.00 0.00
8:53 am 08:53 Cloudy with Mist and Fog 64 17.8 64 17.8 100 100 ENE 7 11 29.84 1010 3 5 0.00 0.00
9:34 am 09:34 Cloudy with Mist and Fog 65 18.3 64 17.8 97 97 ENE 6 9 29.83 1010 6 10 0.00 0.00
9:53 am 09:53 Cloudy with Mist and Fog 65 18.3 64 17.8 97 97 E 7 11 29.84 1010 6 10 0.00 0.00
10:53 am 10:53 Cloudy 67 19.4 64 17.8 91 91 NE 6 9 29.83 1010 10 16 0.00 0.00
10:58 am 10:58 Cloudy 67 19.4 64 17.8 91 91 ENE 6 9 29.80 1009 10 16 0.00 0.00
11:25 am 11:25 Cloudy 68 20 65 18.3 90 90 NNE 7 11 29.80 1009 10 16 0.00 0.00
11:53 am 11:53 Cloudy 68 20 64 17.8 87 87 NE 7 11 29.83 1010 10 16 0.00 0.00
12:53 pm 12:53 Cloudy 71 21.7 65 18.3 81 81 NNE 7 11 29.83 1010 10 16 0.00 0.00
1:53 pm 13:53 Cloudy 71 21.7 65 18.3 81 81 NE 9 15 29.83 1010 10 16 0.00 0.00
2:31 pm 14:31 Mostly Cloudy 74 23.3 66 18.9 76 76 E 7 11 29.80 1009 10 16 0.00 0.00
2:42 pm 14:42 Mostly Cloudy 74 23.3 65 18.3 74 74 NE 7 11 29.80 1009 10 16 0.00 0.00
2:53 pm 14:53 Mostly Cloudy 72 22.2 64 17.8 76 76 ENE 5 7 29.83 1010 10 16 0.00 0.00
3:53 pm 15:53 Mostly Cloudy 74 23.3 65 18.3 74 74 ENE 7 11 29.83 1010 10 16 0.00 0.00
4:29 pm 16:29 Cloudy 71 21.7 65 18.3 81 81 NE 8 13 29.80 1009 10 16 0.00 0.00
4:53 pm 16:53 Cloudy 72 22.2 65 18.3 79 79 NE 5 7 29.83 1010 10 16 0.00 0.00
5:53 pm 17:53 Partly Cloudy 75 23.9 64 17.8 69 69 VRB 5 7 29.81 1009 10 16 0.00 0.00
6:11 pm 18:11 Mostly Cloudy 74 23.3 65 18.3 74 74 Calm 29.77 1008 10 16 0.00 0.00
6:36 pm 18:36 Mostly Cloudy 74 23.3 64 17.8 71 71 Calm 29.77 1008 10 16 0.00 0.00
6:53 pm 18:53 Mostly Cloudy 74 23.3 63 17.2 69 69 Calm 29.81 1010 10 16 0.00 0.00
7:07 pm 19:07 Cloudy 75 23.9 65 18.3 71 71 NE 7 11 29.74 1007 10 16 0.00 0.00
7:23 pm 19:23 Partly Cloudy 73 22.8 65 18.3 76 76 NE 5 7 29.77 1008 10 16 0.00 0.00
7:53 pm 19:53 Sunny 72 22.2 65 18.3 79 79 NNE 3 6 29.80 1009 10 16 0.00 0.00
8:53 pm 20:53 Sunny 70 21.1 66 18.9 87 87 E 7 11 29.80 1009 10 16 0.00 0.00
9:53 pm 21:53 Clear 68 20 65 18.3 90 90 E 5 7 29.82 1010 10 16 0.00 0.00
10:53 pm 22:53 Clear 66 18.9 65 18.3 96 96 SE 6 9 29.84 1011 10 16 0.00 0.00
11:53 pm 23:53 Clear 65 18.3 64 17.8 97 97 E 3 6 29.84 1010 8 13 0.00 0.00

Powered by AerisWeather